BREEZE-M R/B, 43433

Orbit data source: Space-Track

BREEZE-M R/B, 43433 is space debris in GEO originally from a launch on Wed, 18 Apr 2018 UTC launched from the Tyuratam Missile And Space Complex (TTMTR). Debris objects in space refer to the collection of defunct objects orbiting the Earth. Examples of debris include non-operational satellites, rocket bodies, and fragments generated from explosions, collisions, or faulty payload assembly.

Loading next visibility...
Identifier
43433, 2018-037B
Orbit
GEO
Last TLE update
20 hours ago
Origin
Manufacturer
Khrunichev
Mission
Spacecraft
Bus & Motor
BRIZ, Unknown motor
Mass
~1,600 kg wet, 1,600 kg dry
Launch date (UTC)
2018-04-18 (7 years ago)
Launch vehicle
Unknown
Launch site
Tyuratam Missile And Space Complex (TTMTR)
Object type
Payload
Rocket body
Debris
Shape & HBR
Cyl, 4 m
Radar Cross Section
14.451 m²

Expand to show TLE details & history

TLE from 20 hours ago
0 BREEZE-M R/B
1 43433U 18037B   25188.50221512 -.00000159  00000-0  00000+0 0  9993
2 43433   7.1644  74.9489 0687414  20.1215 342.3630  0.90514561 24078
Epoch: 2025-07-07T12:03Z
TLE epoch observation values (Epoch: 2025-07-07T12:03:11.386Z)
Latitude
-0°
Longitude
-31.68949°
Altitude
35,813.828 km
Speed
3.173 km/s
True Right ascension
04h 59m 16s
True Declination
0° 00' 00"
Sunlit
Object was in daylight at epoch
Visualization orbit readout
Latitude
-7.1933°
Longitude
-122.7532°
Altitude
39,711.722 km
Speed
2.91 km/s
Apparent Right ascension
23h 11m 50s
Apparent Declination
-13° 10' 17"
Sunlit
Object is in daylight
Visualization observer readout
Local Sidereal Time
20:18:59
Azimuth
133.382° SE
Elevation
23.456°
Doppler factor
1
Orbital elements
Apogee altitude
41,869.014 km
Perigee altitude
35,662.505 km
Semi-major axis
45,143.896 km
Eccentricity
0.06874
Inclination
7.1644°
RAAN
74.9489°
Arg. of periapsis
20.1215°
True anomaly
Unknown
Mean anomaly
342.363°
Eccentric anomaly
Unknown
Mean motion
0.22628 °/min
Orbital period
1,590.95 mins
BSTAR
0
Loading historical data...
43433 neighbors
Loading maneuver chart data...
Loading SW <> Apogee altitude chart data...
Loading historical data...
Loading historical data...
Loading historical data...
Loading historical data...
Loading historical data...
Loading historical data...
Loading historical data...
Other satellites on launch #37 in the year 2018 (2018-04-18 UTC)

BREEZE-M R/B Visibility forecast

Observer location: undefined°, undefined°

Span
Click to sort rows by Start time (UTC) header in descending order
Start Az.
Max El. time (UTC)
Max El. Az.
Max El.
End time (UTC)
End Az.
1440 mins2025-07-08 08:13:18.097Z133.393° SE2025-07-09 03:03:18.097Z146.858° SSE32.607°2025-07-09 08:13:18.097Z171.422° S
|